WE0DX-1 Weather Reports


Display with metric or nautical units.
time (UTC)temp
F
wind
direction
speed
MPH
gust
MPH
rain 1hr
in
rain 24hr
in
rain mn
in
humidity
%
barometer
mb
20260508014308 65 113 0.0 0.0 0.00 0.00 0.00 51 1009.4
20260508013804 65 129 0.0 0.0 0.00 0.00 0.00 50 1009.4
20260508013300 65 117 0.0 0.0 0.00 0.00 0.00 50 1009.4
20260508012757 65 110 0.0 0.0 0.00 0.00 0.00 50 1009.3
20260508012255 65 126 0.0 0.0 0.00 0.00 0.00 50 1009.4
20260508011753 65 100 0.0 0.0 0.00 0.00 0.00 49 1009.0
20260508011250 66 104 0.0 2.0 0.00 0.00 0.00 49 1009.3
20260508010747 66 125 0.0 0.0 0.00 0.00 0.00 49 1009.4
20260508010245 66 90 0.0 0.0 0.00 0.00 0.00 48 1009.3
20260508005742 66 110 0.0 0.0 0.00 0.00 0.00 49 1009.2
20260508005238 66 126 0.0 0.0 0.00 0.00 0.00 49 1009.2
20260508004734 66 109 0.0 0.0 0.00 0.00 0.00 49 1009.2
20260508004230 67 139 0.0 0.0 0.00 0.00 0.00 48 1009.2
20260508003727 67 94 0.0 0.0 0.00 0.00 0.00 48 1009.3
20260508003225 67 100 0.0 0.0 0.00 0.00 0.00 47 1009.3
20260508002721 67 102 0.0 0.0 0.00 0.00 0.00 47 1009.3
20260508002219 68 182 0.0 0.0 0.00 0.00 0.00 46 1009.4
20260508001714 68 116 0.0 0.0 0.00 0.00 0.00 46 1009.2
20260508001209 68 103 0.0 0.0 0.00 0.00 0.00 45 1009.2
20260508000706 68 128 0.0 2.0 0.00 0.00 0.00 44 1009.5
20260508000205 68 97 0.0 0.0 0.00 0.00 0.00 45 1009.2
20260507235659 68 138 0.0 0.0 0.00 0.00 0.00 44 1009.4
20260507235157 68 142 1.0 2.0 0.00 0.00 0.00 45 1009.6
20260507234654 68 192 1.0 1.0 0.00 0.00 0.00 44 1009.6
20260507234150 68 127 0.0 2.0 0.00 0.00 0.00 44 1009.6
20260507233647 68 203 2.0 3.0 0.00 0.00 0.00 43 1009.7
20260507233146 69 188 1.0 3.0 0.00 0.00 0.00 43 1009.6
20260507232642 69 189 1.0 3.0 0.00 0.00 0.00 42 1009.8
20260507232139 69 206 2.0 5.0 0.00 0.00 0.00 43 1009.7
20260507231635 69 191 1.0 2.0 0.00 0.00 0.00 43 1009.7
20260507231132 69 177 1.0 2.0 0.00 0.00 0.00 42 1009.9
20260507230628 69 241 3.0 5.0 0.00 0.00 0.00 42 1010.0
20260507230126 70 264 1.0 3.0 0.00 0.00 0.00 43 1010.1
20260507225626 70 118 0.0 1.0 0.00 0.00 0.00 42 1009.8
20260507225122 69 142 1.0 3.0 0.00 0.00 0.00 44 1009.9
20260507224618 70 223 1.0 3.0 0.00 0.00 0.00 42 1010.1
20260507224115 69 12 1.0 2.0 0.00 0.00 0.00 45 1010.2
20260507223611 69 201 0.0 3.0 0.00 0.00 0.00 44 1010.1
20260507223108 69 276 3.0 5.0 0.00 0.00 0.00 43 1010.2
20260507222605 69 245 3.0 5.0 0.00 0.00 0.00 43 1010.2
20260507222102 69 221 2.0 5.0 0.00 0.00 0.00 43 1010.0
20260507221558 69 176 1.0 2.0 0.00 0.00 0.00 43 1010.3
20260507221055 69 212 3.0 5.0 0.00 0.00 0.00 43 1010.3
20260507220552 69 191 2.0 3.0 0.00 0.00 0.00 44 1010.3
20260507220049 69 123 1.0 2.0 0.00 0.00 0.00 44 1010.3
20260507215545 69 221 2.0 5.0 0.00 0.00 0.00 43 1010.1
20260507215044 69 241 2.0 5.0 0.00 0.00 0.00 43 1010.3
20260507214540 68 228 2.0 5.0 0.00 0.00 0.00 45 1010.3
20260507214036 68 201 1.0 3.0 0.00 0.00 0.00 46 1010.4
20260507213533 68 213 2.0 5.0 0.00 0.00 0.00 45 1010.5
20260507213030 68 328 2.0 5.0 0.00 0.00 0.00 46 1010.5
20260507212526 69 202 3.0 5.0 0.00 0.00 0.00 46 1010.6
20260507212022 68 195 1.0 5.0 0.00 0.00 0.00 46 1010.8
20260507211519 68 89 3.0 8.0 0.00 0.00 0.00 46 1010.5
20260507211015 68 242 3.0 5.0 0.00 0.00 0.00 46 1010.7
20260507210513 68 215 5.0 7.0 0.00 0.00 0.00 46 1010.8
20260507210010 68 207 1.0 5.0 0.00 0.00 0.00 47 1010.9
20260507205506 69 184 2.0 5.0 0.00 0.00 0.00 45 1010.8
20260507205002 68 193 2.0 5.0 0.00 0.00 0.00 46 1011.0
20260507204459 69 231 5.0 8.0 0.00 0.00 0.00 45 1011.5
20260507203957 68 211 2.0 5.0 0.00 0.00 0.00 47 1011.3
20260507203454 68 153 3.0 6.0 0.00 0.00 0.00 46 1011.4
20260507202950 68 219 3.0 8.0 0.00 0.00 0.00 46 1011.5
20260507202447 69 216 3.0 6.0 0.00 0.00 0.00 46 1011.6
20260507201943 68 148 1.0 6.0 0.00 0.00 0.00 49 1011.5
20260507201438 68 214 2.0 5.0 0.00 0.00 0.00 49 1011.5
20260507200935 67 267 3.0 5.0 0.00 0.00 0.00 48 1011.8
20260507200431 66 208 3.0 6.0 0.00 0.00 0.00 49 1011.8
20260507195927 67 195 2.0 5.0 0.00 0.00 0.00 48 1011.8
20260507195425 67 197 1.0 8.0 0.00 0.00 0.00 48 1012.0
20260507194922 67 265 3.0 5.0 0.00 0.00 0.00 48 1012.2
20260507194418 67 233 2.0 6.0 0.00 0.00 0.00 49 1012.1
20260507193915 67 224 1.0 5.0 0.00 0.00 0.00 49 1012.3
20260507193412 65 274 2.0 7.0 0.00 0.00 0.00 50 1012.4
20260507192908 66 221 3.0 5.0 0.00 0.00 0.00 49 1012.5
20260507192404 67 224 4.0 7.0 0.00 0.00 0.00 49 1012.5
20260507191901 66 210 2.0 3.0 0.00 0.00 0.00 49 1012.3
20260507191357 66 267 1.0 5.0 0.00 0.00 0.00 51 1012.4
20260507190854 66 252 2.0 3.0 0.00 0.00 0.00 51 1012.4
20260507190352 65 138 3.0 7.0 0.00 0.00 0.00 51 1012.5
20260507185851 65 217 2.0 5.0 0.00 0.00 0.00 50 1012.8
20260507185348 65 249 6.0 9.0 0.00 0.00 0.00 50 1012.7
20260507184844 64 178 1.0 7.0 0.00 0.00 0.00 49 1013.0
20260507184342 64 266 3.0 5.0 0.00 0.00 0.00 52 1013.0
20260507183839 65 208 3.0 6.0 0.00 0.00 0.00 51 1013.1
20260507183336 66 234 3.0 5.0 0.00 0.00 0.00 50 1013.2
20260507182834 64 226 1.0 7.0 0.00 0.00 0.00 51 1013.1
20260507182329 65 266 7.0 7.0 0.00 0.00 0.00 50 1013.1
20260507181826 65 225 5.0 8.0 0.00 0.00 0.00 50 1013.3
20260507181321 65 226 3.0 5.0 0.00 0.00 0.00 50 1013.4
20260507180819 64 262 3.0 7.0 0.00 0.00 0.00 50 1013.5
20260507180316 63 184 2.0 7.0 0.00 0.00 0.00 52 1013.6
20260507175811 63 252 3.0 6.0 0.00 0.00 0.00 52 1013.6
20260507175308 62 256 3.0 6.0 0.00 0.00 0.00 54 1013.9
20260507174805 63 188 2.0 5.0 0.00 0.00 0.00 51 1013.6
20260507174303 63 258 1.0 3.0 0.00 0.00 0.00 53 1013.8
20260507173801 63 206 5.0 7.0 0.00 0.00 0.00 52 1013.8
20260507173258 63 348 3.0 5.0 0.00 0.00 0.00 52 1014.0
20260507172754 64 233 3.0 6.0 0.00 0.00 0.00 51 1013.9
20260507172251 63 260 5.0 7.0 0.00 0.00 0.00 51 1014.1
20260507171746 62 218 2.0 3.0 0.00 0.00 0.00 53 1014.1
20260507171243 63 239 1.0 3.0 0.00 0.00 0.00 53 1014.3
20260507170740 62 224 4.0 8.0 0.00 0.00 0.00 53 1013.9
20260507170237 62 237 3.0 6.0 0.00 0.00 0.00 53 1014.2
20260507165732 62 231 2.0 8.0 0.00 0.00 0.00 53 1014.5
20260507165229 62 269 2.0 5.0 0.00 0.00 0.00 53 1014.5
20260507164725 61 206 4.0 6.0 0.00 0.00 0.00 53 1014.6
20260507164223 62 236 4.0 6.0 0.00 0.00 0.00 53 1014.7
20260507163720 62 255 5.0 6.0 0.00 0.00 0.00 53 1014.8
20260507163218 62 190 2.0 6.0 0.00 0.00 0.00 53 1014.6
20260507162713 62 298 3.0 5.0 0.00 0.00 0.00 54 1014.7
20260507162209 61 280 2.0 6.0 0.00 0.00 0.00 55 1014.8
20260507161706 61 246 3.0 6.0 0.00 0.00 0.00 56 1014.9
20260507161203 60 212 1.0 3.0 0.00 0.00 0.00 58 1015.0
20260507160659 61 171 3.0 6.0 0.00 0.00 0.00 55 1015.0
20260507160156 60 248 3.0 6.0 0.00 0.00 0.00 56 1014.9
20260507155651 60 271 5.0 7.0 0.00 0.00 0.00 56 1014.9
20260507155148 60 225 3.0 5.0 0.00 0.00 0.00 59 1014.8
20260507154644 59 247 2.0 9.0 0.00 0.00 0.00 59 1015.0
20260507154143 60 271 5.0 7.0 0.00 0.00 0.00 58 1015.1
20260507153639 60 165 4.0 6.0 0.00 0.00 0.00 57 1015.1
20260507153135 60 193 4.0 6.0 0.00 0.00 0.00 59 1015.1
20260507152632 59 219 4.0 7.0 0.00 0.00 0.00 59 1015.1
20260507152127 59 213 3.0 6.0 0.00 0.00 0.00 59 1015.2
20260507151624 59 194 2.0 5.0 0.00 0.00 0.00 61 1015.2
20260507151121 59 194 3.0 5.0 0.00 0.00 0.00 62 1015.4
20260507150618 58 201 3.0 5.0 0.00 0.00 0.00 60 1015.2
20260507150114 58 206 2.0 3.0 0.00 0.00 0.00 61 1015.5
20260507145609 58 265 4.0 5.0 0.00 0.00 0.00 60 1015.5
20260507145108 58 246 3.0 6.0 0.00 0.00 0.00 60 1015.7
20260507144603 58 156 0.0 3.0 0.00 0.00 0.00 61 1015.5
20260507144102 57 228 3.0 5.0 0.00 0.00 0.00 62 1015.6
20260507143558 58 242 3.0 5.0 0.00 0.00 0.00 60 1015.7
20260507143056 58 279 1.0 2.0 0.00 0.00 0.00 60 1015.5
20260507142555 57 219 2.0 3.0 0.00 0.00 0.00 61 1015.6
20260507142053 57 233 4.0 5.0 0.00 0.00 0.00 60 1015.5
20260507141549 57 240 4.0 5.0 0.00 0.00 0.00 61 1015.5
20260507141046 56 122 1.0 2.0 0.00 0.00 0.00 62 1015.8
20260507140542 56 47 0.0 0.0 0.00 0.00 0.00 64 1015.6
20260507140040 55 215 1.0 2.0 0.00 0.00 0.00 65 1015.6
20260507135537 55 230 3.0 5.0 0.00 0.00 0.00 64 1015.6
20260507135034 55 154 2.0 2.0 0.00 0.00 0.00 66 1015.5
20260507134530 55 212 2.0 2.0 0.00 0.00 0.00 67 1015.5
20260507134026 54 203 2.0 3.0 0.00 0.00 0.00 69 1015.6
20260507133523 54 158 1.0 1.0 0.00 0.00 0.00 67 1015.7
20260507133021 53 274 0.0 2.0 0.00 0.00 0.00 69 1015.6
20260507132517 53 246 2.0 3.0 0.00 0.00 0.00 71 1015.7
20260507132013 52 131 1.0 2.0 0.00 0.00 0.00 72 1015.6
20260507131510 52 179 2.0 2.0 0.00 0.00 0.00 73 1015.7
20260507131008 52 122 0.0 0.0 0.00 0.00 0.00 72 1015.9
20260507130504 51 113 0.0 0.0 0.00 0.00 0.00 73 1015.8
20260507130003 51 114 0.0 0.0 0.00 0.00 0.00 73 1015.8
20260507125501 50 168 1.0 2.0 0.00 0.00 0.00 74 1015.8
20260507124958 50 116 0.0 0.0 0.00 0.00 0.00 75 1016.0
20260507124454 50 99 0.0 0.0 0.00 0.00 0.00 75 1016.0
20260507123952 50 160 1.0 2.0 0.00 0.00 0.00 75 1016.0
20260507123450 49 177 0.0 0.0 0.00 0.00 0.00 75 1015.9
20260507122946 49 94 0.0 0.0 0.00 0.00 0.00 75 1015.9
20260507122441 49 106 0.0 0.0 0.00 0.00 0.00 75 1016.0
20260507121937 49 85 0.0 0.0 0.00 0.00 0.00 74 1015.9
20260507121433 48 94 0.0 0.0 0.00 0.00 0.00 75 1015.8
20260507120930 48 88 0.0 0.0 0.00 0.00 0.00 75 1016.0
20260507120426 48 82 0.0 0.0 0.00 0.00 0.00 76 1015.7
20260507115922 47 94 0.0 0.0 0.00 0.00 0.00 77 1015.9
20260507115419 46 97 0.0 0.0 0.00 0.00 0.00 79 1015.9
20260507114914 45 87 0.0 0.0 0.00 0.00 0.00 80 1015.8
20260507114412 44 77 0.0 0.0 0.00 0.00 0.00 82 1015.9
20260507113909 44 45 0.0 0.0 0.00 0.00 0.00 83 1015.7
20260507113406 44 45 0.0 0.0 0.00 0.00 0.00 83 1015.9
20260507112903 44 45 0.0 0.0 0.00 0.00 0.00 83 1015.9
20260507112400 44 45 0.0 0.0 0.00 0.00 0.00 84 1015.9
20260507111858 43 45 0.0 0.0 0.00 0.00 0.00 85 1015.8
20260507111354 43 45 0.0 0.0 0.00 0.00 0.00 85 1015.6
20260507110850 43 45 0.0 0.0 0.00 0.00 0.00 84 1015.7
20260507110347 43 45 0.0 0.0 0.00 0.00 0.00 84 1015.8
20260507105844 43 45 0.0 0.0 0.00 0.00 0.00 83 1015.5
20260507105340 43 45 0.0 0.0 0.00 0.00 0.00 84 1015.8
20260507104837 43 45 0.0 0.0 0.00 0.00 0.00 83 1015.6
20260507104334 43 45 0.0 0.0 0.00 0.00 0.00 84 1015.6
20260507103830 42 45 0.0 0.0 0.00 0.00 0.00 83 1015.7
20260507103327 43 45 0.0 0.0 0.00 0.00 0.00 82 1015.7
20260507102823 43 45 0.0 0.0 0.00 0.00 0.00 81 1015.7
20260507102320 43 45 0.0 0.0 0.00 0.00 0.00 81 1015.6
20260507101816 43 45 0.0 0.0 0.00 0.00 0.00 80 1015.6
20260507101316 43 45 0.0 0.0 0.00 0.00 0.00 79 1015.9
20260507100813 44 45 0.0 0.0 0.00 0.00 0.00 78 1015.9
20260507100311 44 45 0.0 0.0 0.00 0.00 0.00 77 1015.7
20260507095809 44 45 0.0 0.0 0.00 0.00 0.00 77 1015.7
20260507095306 44 45 0.0 0.0 0.00 0.00 0.00 77 1016.0
20260507094802 44 45 0.0 0.0 0.00 0.00 0.00 76 1015.9
20260507094259 44 45 0.0 0.0 0.00 0.00 0.00 76 1015.9
20260507093756 44 45 0.0 0.0 0.00 0.00 0.00 77 1016.0
20260507093255 44 45 0.0 0.0 0.00 0.00 0.00 77 1016.0
20260507092752 44 45 0.0 0.0 0.00 0.00 0.00 76 1016.0
20260507092248 43 45 0.0 0.0 0.00 0.00 0.00 77 1016.3
20260507091745 44 45 0.0 0.0 0.00 0.00 0.00 76 1016.1
20260507091241 44 45 0.0 0.0 0.00 0.00 0.00 75 1016.3
20260507090736 44 45 0.0 0.0 0.00 0.00 0.00 74 1015.9
20260507090233 44 45 0.0 0.0 0.00 0.00 0.00 73 1015.9
20260507085730 45 45 0.0 0.0 0.00 0.00 0.00 73 1015.9
20260507085227 45 45 0.0 0.0 0.00 0.00 0.00 73 1016.1
20260507084724 45 45 0.0 0.0 0.00 0.00 0.00 72 1016.3
20260507084221 45 45 0.0 0.0 0.00 0.00 0.00 72 1016.0
20260507083719 45 45 0.0 0.0 0.00 0.00 0.00 72 1016.3
20260507083215 46 45 0.0 0.0 0.00 0.00 0.00 73 1016.1
20260507082711 45 45 0.0 0.0 0.00 0.00 0.00 71 1016.4
20260507082207 44 45 0.0 0.0 0.00 0.00 0.00 71 1016.3
20260507081704 45 45 0.0 0.0 0.00 0.00 0.00 71 1016.4
20260507081200 44 45 0.0 0.0 0.00 0.00 0.00 71 1016.1
20260507080657 45 45 0.0 0.0 0.00 0.00 0.00 71 1016.3
20260507080153 45 45 0.0 0.0 0.00 0.00 0.00 71 1016.4
20260507075648 45 45 0.0 0.0 0.00 0.00 0.00 71 1016.1
20260507075144 45 45 0.0 0.0 0.00 0.00 0.00 71 1016.3
20260507074641 45 45 0.0 0.0 0.00 0.00 0.00 71 1016.3
20260507074140 45 45 0.0 0.0 0.00 0.00 0.00 71 1016.1
20260507073636 45 45 0.0 0.0 0.00 0.00 0.00 71 1016.6
20260507073132 45 45 0.0 0.0 0.00 0.00 0.00 71 1016.6
20260507072630 45 45 0.0 0.0 0.00 0.00 0.00 71 1016.4
20260507072127 46 45 0.0 0.0 0.00 0.00 0.00 72 1016.3
20260507071624 46 45 0.0 0.0 0.00 0.00 0.00 71 1016.6
20260507071120 46 45 0.0 0.0 0.00 0.00 0.00 72 1016.7
20260507070618 45 45 0.0 0.0 0.00 0.00 0.00 72 1016.5
20260507070115 46 45 0.0 0.0 0.00 0.00 0.00 72 1016.9
20260507065611 45 45 0.0 0.0 0.00 0.00 0.00 70 1016.8
20260507065108 46 45 0.0 0.0 0.00 0.00 0.00 70 1016.8
20260507064606 46 45 0.0 0.0 0.00 0.00 0.00 71 1016.7
20260507064104 46 45 0.0 0.0 0.00 0.00 0.00 70 1016.8
20260507063601 47 45 0.0 0.0 0.00 0.00 0.00 69 1016.8
20260507063059 48 45 0.0 0.0 0.00 0.00 0.00 67 1017.1
20260507062555 48 45 0.0 0.0 0.00 0.00 0.00 63 1017.1
20260507062053 48 45 0.0 0.0 0.00 0.00 0.00 64 1016.8
20260507061550 47 45 0.0 0.0 0.00 0.00 0.00 70 1017.1
20260507061048 47 45 0.0 0.0 0.00 0.00 0.00 67 1016.7
20260507060546 48 45 0.0 0.0 0.00 0.00 0.00 67 1017.0
20260507060042 48 45 0.0 0.0 0.00 0.00 0.00 67 1017.0
20260507055537 49 45 0.0 0.0 0.00 0.00 0.00 66 1016.9
20260507055034 49 45 0.0 0.0 0.00 0.00 0.00 63 1017.0
20260507054530 49 45 0.0 0.0 0.00 0.00 0.00 60 1017.0
20260507054027 50 41 0.0 0.0 0.00 0.00 0.00 60 1017.0
20260507053525 50 41 0.0 0.0 0.00 0.00 0.00 59 1017.1
20260507053023 50 41 0.0 0.0 0.00 0.00 0.00 58 1017.0
20260507052521 50 41 0.0 0.0 0.00 0.00 0.00 56 1017.0
20260507052017 50 41 0.0 0.0 0.00 0.00 0.00 54 1016.7
20260507051515 50 41 0.0 0.0 0.00 0.00 0.00 54 1017.2
20260507051012 50 41 0.0 0.0 0.00 0.00 0.00 53 1016.9
20260507050508 50 41 0.0 0.0 0.00 0.00 0.00 52 1016.7
20260507050005 50 41 0.0 0.0 0.00 0.02 0.02 52 1016.8
20260507045501 50 41 0.0 0.0 0.00 0.02 0.02 51 1016.8
20260507044959 50 41 0.0 0.0 0.00 0.02 0.02 50 1016.9
20260507044455 51 41 0.0 0.0 0.00 0.02 0.02 49 1017.2
20260507043951 51 41 0.0 0.0 0.00 0.02 0.02 50 1016.9
20260507043448 51 41 0.0 0.0 0.00 0.02 0.02 52 1016.9
20260507042944 50 41 0.0 0.0 0.00 0.02 0.02 50 1016.9
20260507042441 50 41 0.0 0.0 0.00 0.02 0.02 50 1017.1
20260507041937 50 41 0.0 0.0 0.00 0.02 0.02 53 1017.0
20260507041434 50 41 0.0 0.0 0.00 0.02 0.02 52 1017.2
20260507040931 49 41 0.0 0.0 0.00 0.02 0.02 56 1017.0
20260507040432 50 41 0.0 0.0 0.00 0.02 0.02 66 1017.3
20260507035928 50 41 0.0 0.0 0.00 0.02 0.02 59 1017.3
20260507035424 50 41 0.0 0.0 0.00 0.02 0.02 58 1017.2
20260507034921 50 41 0.0 0.0 0.00 0.02 0.02 51 1017.1
20260507034418 51 41 0.0 0.0 0.00 0.02 0.02 55 1017.3
20260507033916 51 41 0.0 0.0 0.00 0.02 0.02 49 1017.2
20260507033414 51 41 0.0 0.0 0.00 0.02 0.02 44 1017.2
20260507032911 51 41 0.0 0.0 0.00 0.02 0.02 47 1017.1
20260507032408 51 41 0.0 0.0 0.00 0.02 0.02 47 1017.1
20260507031903 51 41 0.0 0.0 0.00 0.02 0.02 47 1017.2
20260507031400 51 41 0.0 0.0 0.00 0.02 0.02 47 1017.1
20260507030857 51 41 0.0 0.0 0.00 0.02 0.02 48 1017.2
20260507030354 50 41 0.0 0.0 0.00 0.02 0.02 49 1017.3
20260507025851 50 41 0.0 0.0 0.00 0.02 0.02 57 1017.2
20260507025349 50 41 0.0 0.0 0.00 0.02 0.02 59 1017.1
20260507024846 50 40 0.0 0.0 0.00 0.02 0.02 57 1017.0
20260507024343 50 48 0.0 0.0 0.00 0.02 0.02 55 1017.2
20260507023839 50 48 0.0 0.0 0.00 0.02 0.02 54 1017.0
20260507023336 50 48 0.0 0.0 0.00 0.02 0.02 53 1017.0
20260507022833 50 44 0.0 0.0 0.00 0.02 0.02 51 1016.9
20260507022330 50 44 0.0 0.0 0.00 0.02 0.02 49 1017.1
20260507021826 51 48 0.0 0.0 0.00 0.02 0.02 50 1016.8
20260507021321 51 48 0.0 0.0 0.00 0.02 0.02 47 1016.9
20260507020819 51 44 0.0 0.0 0.00 0.02 0.02 45 1016.8
20260507020316 51 48 0.0 0.0 0.00 0.02 0.02 45 1016.8
20260507015813 51 44 0.0 0.0 0.00 0.02 0.02 48 1016.5
20260507015311 52 44 0.0 0.0 0.00 0.02 0.02 50 1016.6
20260507014808 52 44 0.0 0.0 0.00 0.02 0.02 46 1016.7